Location: *
(30.0216°S, 148.7744°W)
Time: 22:09:46
(UTC+00:00)

Yuri Rocket - Visible Passes

Search period start: 18 November 2025 00:00
Search period end: 28 November 2025 00:00
Orbit: 567 x 1899 km, 28.2° (Epoch: 17 November)

Date Brightness Start Highest point End Pass type
(mag) Time Alt. Az. Time Alt. Az. Time Alt. Az.
22 Nov 6.9 14:17:41 10° NNE 14:20:12 11° NE 14:22:51 10° ENE visible
23 Nov 6.7 14:06:56 10° NNE 14:10:14 13° NE 14:13:50 10° ENE visible
24 Nov 6.5 13:56:30 10° NNE 14:00:17 14° NE 14:04:31 10° ENE visible
25 Nov 6.3 13:46:16 10° N 13:50:20 15° NE 13:55:02 10° ENE visible
26 Nov 6.2 13:36:09 10° N 13:40:25 16° NE 13:45:26 10° ENE visible
27 Nov 6.0 13:26:09 10° N 13:30:32 18° NE 13:35:45 10° ENE visible
